[Date Prev][Date Next][Thread Prev][Thread Next] - [Date Index][Thread Index][Author Index]
2 Line ISS Keps 10-22
- Subject: [sarex] 2 Line ISS Keps 10-22
- From: "Dave Larsen PhD" <doc@xxxxxxxxxxx>
- Date: Wed, 22 Oct 2003 03:24:26 -0700
ISS
1 25544U 98067A 03295.20054398 .00039737 00000-0 43805-3 0 6810
2 25544 51.6291 100.0562 0006596 63.7444 281.0406 15.62676338280844
----
Via the sarex mailing list at AMSAT.ORG courtesy of AMSAT-NA.
To unsubscribe, send "unsubscribe sarex" to Majordomo@amsat.org
AMSAT Home